Content
SEND FEEDBACK

Daily
Averages
Monthly
Summary
United States of America

BEDFORD PARK, ILLINOIS


Home > North America > United States > Illinois
Elevation: 623 feet     Latitude: 41 46N     Longitude: 087 45W

WEATHER
 
SELECT A DAY
Number of Records: 189,428;   Date Range: 1/1/95 - 8/12/14
 
SHARE

PRINT THIS DATA

[ ← Previous Day ]
WEATHER ALMANAC - APRIL 26, 2013
[ Next Day → ]
[ °C ]   °F
Weather ElementAverageHighLow
Temperature54.9 °F66 °F (2:51 pm)39.9 °F (3:51 am)
Dewpoint35.6 °F43 °F (8:51 pm)26.1 °F (3:51 am)
Humidity49.1 %64 % (11:51 pm)39 % (11:51 am)
Barometer30.31 in30.37 in (6:51 am)30.25 in (4:51 pm)
Wind Speed11.5 mph18.4 mph (11:51 am)
Wind Gust27.6 mph (12:51 pm)
Weather ElementAverage
Visibility10 mi
Wind DirectionSSW (190.4 °)

Weather ElementTotal
Precipitation---
Heating Degree Days12.1 (Base 65)
Growing Degree Days3 (Base 50)
Averaged from 23 records on April 26, 2013
WEATHER CONDITIONS BREAKOUT
WIND DIRECTION BREAKOUT
WEATHER BY HOUR - APRIL 26, 2013
[ °C ]   °F
Local TimeTemperatureDewpointHumidityBarometerVisibilityWind DirectionWind SpeedGust SpeedPrecipitationEventsConditions
1:51 AM41.0 °F27.0 °F57 %30.35 in10.0 miSouth (180°)4.6 mphScattered Clouds
2:51 AM41.0 °F27.0 °F57 %30.35 in10.0 miSSE (160°)6.9 mphScattered Clouds
3:51 AM39.9 °F26.1 °F58 %30.35 in10.0 miSouth (170°)6.9 mphScattered Clouds
4:51 AM39.9 °F27.0 °F60 %30.35 in10.0 miSSE (160°)8.1 mphMostly Cloudy
5:51 AM41.0 °F27.0 °F57 %30.35 in10.0 miSouth (170°)5.8 mphScattered Clouds
6:51 AM42.1 °F27.0 °F55 %30.37 in10.0 miSouth (170°)5.8 mphScattered Clouds
7:51 AM46.9 °F28.9 °F50 %30.35 in10.0 miSSE (150°)9.2 mphMostly Cloudy
8:51 AM51.1 °F30.9 °F46 %30.36 in10.0 miSouth (190°)12.7 mph19.6 mphMostly Cloudy
9:51 AM55.0 °F32.0 °F42 %30.34 in10.0 miSouth (180°)17.3 mphMostly Cloudy
10:51 AM57.9 °F34.0 °F41 %30.34 in10.0 miSouth (190°)12.7 mph20.7 mphMostly Cloudy
11:51 AM61.0 °F36.0 °F39 %30.33 in10.0 miSouth (190°)18.4 mph26.5 mphMostly Cloudy
12:51 PM63.0 °F37.9 °F40 %30.32 in10.0 miSouth (180°)17.3 mph27.6 mphMostly Cloudy
1:51 PM64.9 °F39.9 °F40 %30.30 in10.0 miSSW (200°)16.1 mph25.3 mphMostly Cloudy
2:51 PM66.0 °F41.0 °F40 %30.28 in10.0 miSW (220°)17.3 mph26.5 mphMostly Cloudy
3:51 PM66.0 °F41.0 °F40 %30.26 in10.0 miSW (220°)16.1 mph27.6 mphMostly Cloudy
4:51 PM66.0 °F42.1 °F42 %30.25 in10.0 miSSW (210°)13.8 mph26.5 mphMostly Cloudy
5:51 PM66.0 °F41.0 °F40 %30.25 in10.0 miSSW (200°)15.0 mph25.3 mphMostly Cloudy
6:51 PM64.0 °F41.0 °F43 %30.26 in10.0 miSSW (200°)17.3 mph25.3 mphScattered Clouds
7:51 PM62.1 °F42.1 °F48 %30.27 in10.0 miSSW (210°)12.7 mph19.6 mphScattered Clouds
8:51 PM59.0 °F43.0 °F55 %30.28 in10.0 miSSW (200°)9.2 mph19.6 mphScattered Clouds
9:51 PM57.9 °F42.1 °F56 %30.29 in10.0 miSSW (200°)9.2 mph18.4 mphScattered Clouds
10:51 PM55.9 °F42.1 °F60 %30.30 in10.0 miSSW (210°)5.8 mphPartly Cloudy
11:51 PM54.0 °F42.1 °F64 %30.30 in10.0 miSW (220°)5.8 mphPartly Cloudy
Hourly data recorded from KMDW, located miles away from Bedford Park, Illinois







STORIES FROM OUR PARTNERS